QPF
0.10 0.11 0.11 0.10 0.08 0.09 0.10 0.12 0.11 0.10 0.08 0.07 0.10 0.10 0.09 0.13 0.14 0.12 0.10 0.08 0.06 0.10 0.15 0.15 0.10 0.09 0.05 0.03 0.02 0.03 0.04 0.05 0.05 0.05 0.05 0.05 0.06 0.07 0.07 0.07 0.07 0.06 0.05
0.09 0.09 0.10 0.11 0.09 0.08 0.09 0.09 0.09 0.09 0.09 0.08 0.08 0.04 0.05 0.09 0.15 0.15 0.12 0.10 0.09 0.13 0.14 0.15 0.14 0.10 0.06 0.05 0.03 0.04 0.05 0.05 0.05 0.05 0.06 0.07 0.08 0.08 0.08 0.09 0.09 0.08 0.07
0.08 0.09 0.10 0.09 0.08 0.07 0.08 0.08 0.06 0.08 0.09 0.09 0.09 0.06 0.07 0.10 0.19 0.19 0.14 0.12 0.13 0.12 0.10 0.10 0.14 0.13 0.10 0.06 0.04 0.03 0.04 0.04 0.05 0.06 0.07 0.06 0.06 0.06 0.06 0.07 0.07 0.08 0.08
0.07 0.09 0.10 0.09 0.07 0.07 0.08 0.07 0.06 0.08 0.08 0.09 0.10 0.08 0.06 0.07 0.11 0.14 0.12 0.11 0.11 0.10 0.14 0.17 0.20 0.19 0.15 0.11 0.07 0.05 0.05 0.05 0.05 0.06 0.06 0.05 0.04 0.05 0.06 0.06 0.06 0.07 0.06
0.03 0.05 0.07 0.08 0.07 0.06 0.08 0.06 0.07 0.06 0.08 0.10 0.09 0.08 0.06 0.06 0.07 0.08 0.09 0.07 0.08 0.09 0.14 0.17 0.22 0.30 0.28 0.21 0.13 0.09 0.08 0.06 0.06 0.06 0.05 0.05 0.05 0.06 0.06 0.06 0.06 0.05 0.04
0.03 0.03 0.06 0.05 0.03 0.05 0.06 0.07 0.06 0.07 0.08 0.11 0.10 0.08 0.06 0.07 0.07 0.07 0.09 0.06 0.05 0.07 0.12 0.17 0.20 0.20 0.23 0.24 0.19 0.13 0.11 0.08 0.06 0.05 0.04 0.04 0.04 0.03 0.04 0.05 0.05 0.05 0.04
0.03 0.05 0.04 0.04 0.04 0.04 0.05 0.05 0.06 0.07 0.07 0.08 0.09 0.09 0.07 0.06 0.09 0.10 0.10 0.08 0.05 0.06 0.08 0.12 0.17 0.17 0.17 0.17 0.15 0.14 0.12 0.11 0.08 0.06 0.05 0.04 0.04 0.05 0.05 0.04 0.03 0.03 0.03
0.04 0.04 0.05 0.03 0.03 0.04 0.04 0.06 0.07 0.07 0.06 0.08 0.09 0.10 0.11 0.10 0.10 0.09 0.09 0.08 0.06 0.05 0.06 0.07 0.12 0.17 0.18 0.15 0.10 0.07 0.07 0.08 0.09 0.08 0.07 0.05 0.04 0.05 0.05 0.06 0.05 0.03 0.03
0.04 0.05 0.05 0.04 0.04 0.04 0.05 0.06 0.07 0.07 0.06 0.07 0.08 0.11 0.13 0.12 0.12 0.09 0.06 0.07 0.07 0.08 0.08 0.08 0.08 0.09 0.10 0.14 0.12 0.07 0.04 0.06 0.07 0.09 0.09 0.08 0.04 0.06 0.09 0.13 0.08 0.04 0.02
0.05 0.05 0.06 0.07 0.08 0.06 0.05 0.04 0.06 0.05 0.05 0.06 0.08 0.08 0.09 0.11 0.11 0.10 0.08 0.06 0.05 0.07 0.08 0.07 0.07 0.06 0.08 0.08 0.10 0.09 0.07 0.06 0.07 0.09 0.12 0.12 0.09 0.10 0.10 0.12 0.08 0.04 0.04
0.05 0.04 0.05 0.07 0.07 0.07 0.05 0.05 0.05 0.04 0.04 0.04 0.05 0.06 0.08 0.09 0.09 0.09 0.08 0.08 0.07 0.06 0.06 0.06 0.06 0.07 0.06 0.05 0.07 0.07 0.07 0.08 0.08 0.08 0.09 0.12 0.12 0.09 0.08 0.07 0.06 0.06 0.07
0.05 0.04 0.04 0.04 0.05 0.06 0.06 0.06 0.06 0.05 0.05 0.04 0.04 0.04 0.05 0.07 0.08 0.08 0.07 0.07 0.07 0.07 0.06 0.08 0.08 0.06 0.05 0.03 0.03 0.04 0.06 0.07 0.10 0.11 0.10 0.11 0.10 0.10 0.11 0.09 0.07 0.06 0.07
0.03 0.04 0.04 0.04 0.04 0.05 0.04 0.04 0.04 0.05 0.04 0.04 0.03 0.04 0.04 0.04 0.06 0.07 0.06 0.07 0.07 0.07 0.06 0.06 0.06 0.06 0.05 0.05 0.05 0.04 0.04 0.06 0.08 0.10 0.11 0.14 0.14 0.12 0.13 0.12 0.11 0.10 0.10
0.01 0.02 0.04 0.03 0.02 0.02 0.02 0.03 0.04 0.04 0.04 0.03 0.03 0.04 0.04 0.04 0.05 0.05 0.06 0.07 0.06 0.06 0.06 0.05 0.04 0.04 0.06 0.06 0.06 0.06 0.03 0.05 0.07 0.08 0.10 0.12 0.15 0.13 0.11 0.09 0.09 0.10 0.08
0.01 0.02 0.03 0.04 0.03 0.02 0.02 0.03 0.03 0.04 0.04 0.04 0.03 0.03 0.03 0.03 0.04 0.04 0.06 0.07 0.06 0.06 0.06 0.07 0.05 0.04 0.06 0.08 0.10 0.07 0.06 0.05 0.05 0.05 0.07 0.09 0.12 0.11 0.09 0.07 0.07 0.07 0.05
0.01 0.02 0.03 0.04 0.04 0.03 0.03 0.03 0.02 0.03 0.04 0.05 0.04 0.03 0.02 0.02 0.02 0.03 0.04 0.06 0.08 0.08 0.08 0.06 0.06 0.05 0.05 0.06 0.08 0.09 0.10 0.10 0.07 0.06 0.06 0.08 0.11 0.11 0.09 0.08 0.08 0.06 0.05
0.02 0.02 0.03 0.04 0.04 0.03 0.03 0.03 0.02 0.03 0.03 0.03 0.03 0.03 0.02 0.03 0.03 0.03 0.03 0.04 0.05 0.06 0.06 0.06 0.06 0.07 0.07 0.07 0.09 0.08 0.09 0.10 0.08 0.08 0.08 0.08 0.10 0.13 0.10 0.09 0.09 0.07 0.05
0.02 0.03 0.03 0.03 0.03 0.03 0.03 0.02 0.02 0.03 0.04 0.04 0.04 0.04 0.03 0.04 0.04 0.04 0.04 0.04 0.04 0.05 0.05 0.05 0.06 0.07 0.06 0.06 0.06 0.07 0.07 0.05 0.06 0.08 0.09 0.10 0.13 0.17 0.14 0.09 0.07 0.05 0.04
0.03 0.03 0.02 0.03 0.03 0.03 0.02 0.01 0.02 0.02 0.03 0.03 0.04 0.05 0.05 0.05 0.05 0.05 0.05 0.04 0.04 0.04 0.05 0.04 0.04 0.05 0.05 0.04 0.05 0.04 0.04 0.07 0.05 0.04 0.06 0.09 0.14 0.19 0.17 0.09 0.06 0.04 0.04
0.04 0.04 0.04 0.03 0.02 0.02 0.01 0.01 0.02 0.02 0.02 0.02 0.02 0.03 0.03 0.03 0.04 0.05 0.05 0.06 0.06 0.06 0.06 0.05 0.04 0.04 0.04 0.05 0.05 0.04 0.03 0.04 0.05 0.04 0.03 0.04 0.08 0.15 0.15 0.11 0.07 0.05 0.04
0.04 0.05 0.04 0.02 0.01 0.01 0.00 0.01 0.01 0.02 0.02 0.02 0.01 0.01 0.01 0.01 0.01 0.02 0.02 0.03 0.04 0.04 0.05 0.05 0.05 0.05 0.05 0.07 0.05 0.05 0.05 0.05 0.05 0.06 0.05 0.04 0.06 0.11 0.12 0.13 0.11 0.06 0.04
0.06 0.06 0.04 0.02 0.01 0.00 0.01 0.01 0.01 0.02 0.03 0.02 0.02 0.02 0.01 0.01 0.01 0.01 0.01 0.01 0.01 0.03 0.04 0.05 0.06 0.07 0.08 0.09 0.08 0.07 0.07 0.07 0.06 0.07 0.08 0.07 0.08 0.12 0.12 0.13 0.14 0.11 0.08
0.05 0.04 0.03 0.02 0.02 0.03 0.03 0.02 0.01 0.02 0.03 0.03 0.03 0.03 0.01 0.01 0.01 0.01 0.01 0.01 0.01 0.02 0.02 0.02 0.03 0.04 0.05 0.06 0.07 0.07 0.07 0.08 0.09 0.11 0.12 0.12 0.12 0.15 0.15 0.16 0.16 0.15 0.13
0.05 0.05 0.04 0.03 0.03 0.03 0.04 0.02 0.01 0.01 0.02 0.03 0.03 0.03 0.02 0.02 0.02 0.02 0.02 0.02 0.02 0.02 0.02 0.02 0.02 0.03 0.03 0.05 0.05 0.05 0.07 0.08 0.09 0.12 0.12 0.10 0.09 0.11 0.13 0.15 0.17 0.16 0.12
0.03 0.03 0.03 0.03 0.03 0.03 0.04 0.02 0.02 0.01 0.01 0.03 0.03 0.03 0.03 0.02 0.02 0.03 0.02 0.02 0.03 0.03 0.02 0.03 0.03 0.02 0.02 0.02 0.03 0.04 0.05 0.06 0.06 0.08 0.11 0.11 0.09 0.11 0.14 0.14 0.15 0.16 0.12
0.04 0.03 0.03 0.03 0.03 0.04 0.04 0.02 0.02 0.02 0.02 0.02 0.03 0.03 0.03 0.03 0.04 0.05 0.04 0.04 0.04 0.04 0.04 0.05 0.05 0.04 0.03 0.03 0.04 0.04 0.06 0.06 0.07 0.08 0.08 0.10 0.11 0.14 0.15 0.14 0.15 0.15 0.14
MSLP
1002.67 1002.67 1002.66 1002.70 1002.82 1003.03 1003.34 1003.73 1004.17 1004.61 1005.03 1005.40 1005.73 1006.00 1006.26 1006.50 1006.76 1007.02 1007.29 1007.57 1007.86 1008.16 1008.51 1008.88 1009.32 1009.78 1010.28 1010.78 1011.26 1011.69 1012.07 1012.40 1012.71 1013.02 1013.37 1013.77 1014.22 1014.70 1015.18 1015.62 1016.00 1016.31 1016.56
1003.57 1003.48 1003.42 1003.42 1003.53 1003.77 1004.13 1004.58 1005.10 1005.63 1006.12 1006.54 1006.88 1007.14 1007.33 1007.47 1007.58 1007.70 1007.83 1007.99 1008.19 1008.45 1008.78 1009.16 1009.60 1010.07 1010.56 1011.03 1011.47 1011.86 1012.19 1012.49 1012.78 1013.10 1013.44 1013.85 1014.29 1014.75 1015.20 1015.62 1015.97 1016.25 1016.49
1004.59 1004.42 1004.30 1004.26 1004.34 1004.56 1004.92 1005.38 1005.91 1006.46 1006.96 1007.39 1007.72 1007.95 1008.09 1008.16 1008.18 1008.20 1008.23 1008.31 1008.46 1008.68 1008.98 1009.36 1009.79 1010.25 1010.72 1011.17 1011.58 1011.93 1012.25 1012.54 1012.82 1013.14 1013.50 1013.90 1014.33 1014.78 1015.20 1015.58 1015.91 1016.18 1016.41
1005.55 1005.32 1005.14 1005.06 1005.09 1005.26 1005.56 1005.98 1006.46 1006.97 1007.44 1007.84 1008.16 1008.37 1008.48 1008.52 1008.52 1008.49 1008.48 1008.52 1008.63 1008.82 1009.09 1009.44 1009.85 1010.29 1010.73 1011.16 1011.54 1011.88 1012.20 1012.49 1012.80 1013.13 1013.50 1013.90 1014.33 1014.76 1015.16 1015.52 1015.83 1016.10 1016.34
1006.32 1006.06 1005.84 1005.70 1005.68 1005.78 1006.00 1006.32 1006.72 1007.14 1007.55 1007.92 1008.21 1008.42 1008.55 1008.62 1008.63 1008.62 1008.62 1008.64 1008.73 1008.88 1009.11 1009.41 1009.76 1010.16 1010.56 1010.96 1011.33 1011.68 1012.01 1012.34 1012.67 1013.04 1013.43 1013.84 1014.27 1014.69 1015.08 1015.43 1015.74 1016.01 1016.27
1006.88 1006.59 1006.36 1006.18 1006.11 1006.14 1006.26 1006.48 1006.76 1007.08 1007.41 1007.73 1008.01 1008.24 1008.42 1008.54 1008.61 1008.65 1008.67 1008.70 1008.76 1008.87 1009.03 1009.25 1009.53 1009.86 1010.21 1010.58 1010.94 1011.31 1011.68 1012.04 1012.43 1012.84 1013.26 1013.70 1014.14 1014.56 1014.94 1015.30 1015.61 1015.90 1016.18
1007.29 1007.00 1006.76 1006.58 1006.47 1006.44 1006.48 1006.58 1006.75 1006.96 1007.21 1007.48 1007.75 1008.00 1008.23 1008.42 1008.56 1008.66 1008.71 1008.74 1008.76 1008.80 1008.87 1008.99 1009.17 1009.41 1009.70 1010.03 1010.40 1010.79 1011.20 1011.62 1012.06 1012.52 1012.98 1013.45 1013.90 1014.32 1014.72 1015.08 1015.41 1015.72 1016.03
1007.68 1007.41 1007.19 1007.02 1006.90 1006.82 1006.79 1006.80 1006.86 1006.97 1007.14 1007.34 1007.59 1007.86 1008.13 1008.37 1008.56 1008.70 1008.76 1008.77 1008.74 1008.69 1008.65 1008.65 1008.72 1008.86 1009.08 1009.38 1009.73 1010.14 1010.59 1011.06 1011.56 1012.07 1012.57 1013.06 1013.54 1013.98 1014.38 1014.76 1015.12 1015.46 1015.80
1008.18 1007.94 1007.76 1007.61 1007.50 1007.40 1007.32 1007.25 1007.22 1007.23 1007.30 1007.44 1007.64 1007.89 1008.17 1008.43 1008.65 1008.78 1008.84 1008.80 1008.69 1008.54 1008.39 1008.27 1008.22 1008.26 1008.41 1008.66 1009.00 1009.42 1009.89 1010.40 1010.94 1011.48 1012.02 1012.54 1013.03 1013.49 1013.92 1014.32 1014.71 1015.08 1015.44
1008.84 1008.64 1008.50 1008.40 1008.30 1008.20 1008.08 1007.95 1007.83 1007.74 1007.72 1007.77 1007.90 1008.11 1008.34 1008.58 1008.78 1008.89 1008.90 1008.80 1008.61 1008.37 1008.11 1007.88 1007.72 1007.68 1007.76 1007.96 1008.27 1008.68 1009.16 1009.68 1010.24 1010.79 1011.34 1011.88 1012.38 1012.86 1013.32 1013.75 1014.17 1014.57 1014.97
1009.64 1009.48 1009.38 1009.31 1009.23 1009.12 1008.98 1008.79 1008.60 1008.42 1008.29 1008.25 1008.30 1008.42 1008.59 1008.78 1008.92 1008.98 1008.94 1008.78 1008.52 1008.20 1007.85 1007.54 1007.31 1007.19 1007.20 1007.35 1007.62 1008.00 1008.45 1008.96 1009.49 1010.04 1010.58 1011.12 1011.63 1012.13 1012.61 1013.08 1013.52 1013.96 1014.40
1010.48 1010.35 1010.28 1010.23 1010.16 1010.05 1009.87 1009.64 1009.38 1009.11 1008.90 1008.76 1008.71 1008.74 1008.84 1008.95 1009.03 1009.04 1008.94 1008.74 1008.43 1008.06 1007.67 1007.31 1007.02 1006.84 1006.80 1006.89 1007.10 1007.42 1007.82 1008.28 1008.76 1009.28 1009.79 1010.31 1010.82 1011.34 1011.84 1012.33 1012.82 1013.29 1013.75
1011.25 1011.14 1011.08 1011.04 1010.97 1010.84 1010.63 1010.36 1010.04 1009.71 1009.42 1009.20 1009.06 1009.02 1009.04 1009.08 1009.11 1009.08 1008.96 1008.73 1008.41 1008.03 1007.62 1007.24 1006.92 1006.70 1006.61 1006.63 1006.77 1007.01 1007.32 1007.70 1008.12 1008.56 1009.04 1009.52 1010.02 1010.54 1011.05 1011.57 1012.08 1012.59 1013.07
1011.86 1011.75 1011.69 1011.63 1011.55 1011.40 1011.17 1010.87 1010.52 1010.15 1009.81 1009.53 1009.34 1009.24 1009.21 1009.21 1009.21 1009.16 1009.02 1008.80 1008.50 1008.13 1007.74 1007.36 1007.03 1006.79 1006.64 1006.59 1006.65 1006.79 1007.00 1007.28 1007.60 1007.96 1008.37 1008.82 1009.29 1009.80 1010.31 1010.84 1011.37 1011.89 1012.39
1012.28 1012.16 1012.08 1012.01 1011.91 1011.74 1011.50 1011.19 1010.83 1010.45 1010.10 1009.81 1009.60 1009.47 1009.42 1009.40 1009.38 1009.33 1009.21 1009.02 1008.74 1008.40 1008.04 1007.68 1007.34 1007.07 1006.87 1006.76 1006.72 1006.75 1006.85 1007.01 1007.23 1007.51 1007.84 1008.23 1008.67 1009.14 1009.65 1010.17 1010.70 1011.21 1011.71
1012.54 1012.42 1012.32 1012.24 1012.12 1011.94 1011.71 1011.40 1011.06 1010.70 1010.37 1010.10 1009.90 1009.78 1009.72 1009.71 1009.70 1009.66 1009.56 1009.38 1009.14 1008.84 1008.50 1008.14 1007.81 1007.51 1007.26 1007.06 1006.93 1006.86 1006.86 1006.91 1007.03 1007.21 1007.47 1007.78 1008.16 1008.60 1009.06 1009.55 1010.05 1010.54 1011.02
1012.71 1012.58 1012.49 1012.39 1012.28 1012.11 1011.89 1011.62 1011.32 1011.01 1010.72 1010.49 1010.32 1010.23 1010.19 1010.18 1010.17 1010.13 1010.04 1009.88 1009.66 1009.37 1009.04 1008.69 1008.34 1008.01 1007.71 1007.45 1007.24 1007.08 1006.98 1006.93 1006.96 1007.06 1007.22 1007.46 1007.77 1008.13 1008.54 1008.96 1009.40 1009.85 1010.30
1012.87 1012.75 1012.66 1012.57 1012.47 1012.32 1012.14 1011.92 1011.67 1011.42 1011.19 1011.00 1010.88 1010.80 1010.77 1010.76 1010.74 1010.70 1010.60 1010.43 1010.20 1009.91 1009.58 1009.22 1008.85 1008.49 1008.14 1007.83 1007.56 1007.33 1007.15 1007.03 1006.98 1006.99 1007.08 1007.24 1007.45 1007.72 1008.03 1008.38 1008.74 1009.11 1009.50
1013.02 1012.94 1012.86 1012.80 1012.72 1012.60 1012.46 1012.29 1012.10 1011.90 1011.73 1011.59 1011.49 1011.42 1011.39 1011.37 1011.33 1011.25 1011.12 1010.94 1010.68 1010.38 1010.03 1009.65 1009.26 1008.88 1008.51 1008.16 1007.85 1007.57 1007.34 1007.17 1007.05 1007.00 1007.00 1007.06 1007.17 1007.33 1007.53 1007.76 1008.02 1008.31 1008.63
1013.16 1013.10 1013.05 1013.01 1012.96 1012.88 1012.78 1012.65 1012.51 1012.37 1012.23 1012.12 1012.04 1011.97 1011.92 1011.87 1011.80 1011.68 1011.52 1011.30 1011.02 1010.70 1010.34 1009.95 1009.55 1009.16 1008.78 1008.42 1008.08 1007.79 1007.53 1007.32 1007.15 1007.03 1006.95 1006.91 1006.91 1006.95 1007.02 1007.13 1007.27 1007.46 1007.71
1013.20 1013.16 1013.13 1013.12 1013.09 1013.04 1012.98 1012.89 1012.79 1012.68 1012.57 1012.47 1012.39 1012.32 1012.25 1012.16 1012.06 1011.91 1011.72 1011.48 1011.18 1010.85 1010.49 1010.10 1009.71 1009.33 1008.96 1008.60 1008.28 1007.98 1007.71 1007.47 1007.26 1007.08 1006.92 1006.79 1006.68 1006.59 1006.53 1006.51 1006.54 1006.62 1006.79
1013.06 1013.02 1013.01 1013.01 1013.00 1012.98 1012.93 1012.88 1012.80 1012.71 1012.62 1012.54 1012.46 1012.37 1012.29 1012.19 1012.07 1011.91 1011.71 1011.46 1011.18 1010.86 1010.52 1010.16 1009.80 1009.44 1009.09 1008.76 1008.44 1008.16 1007.88 1007.62 1007.38 1007.15 1006.93 1006.70 1006.49 1006.28 1006.10 1005.96 1005.88 1005.87 1005.96
1012.70 1012.65 1012.63 1012.62 1012.62 1012.62 1012.59 1012.55 1012.49 1012.43 1012.36 1012.28 1012.20 1012.13 1012.05 1011.96 1011.84 1011.70 1011.52 1011.31 1011.07 1010.79 1010.49 1010.18 1009.85 1009.53 1009.21 1008.90 1008.61 1008.32 1008.05 1007.79 1007.52 1007.25 1006.97 1006.68 1006.38 1006.08 1005.80 1005.56 1005.38 1005.28 1005.30
1012.11 1012.04 1012.00 1011.98 1011.98 1011.98 1011.97 1011.94 1011.91 1011.86 1011.81 1011.75 1011.70 1011.65 1011.59 1011.53 1011.46 1011.36 1011.24 1011.08 1010.90 1010.68 1010.44 1010.18 1009.90 1009.61 1009.32 1009.03 1008.76 1008.48 1008.21 1007.94 1007.66 1007.36 1007.05 1006.71 1006.36 1006.00 1005.66 1005.35 1005.10 1004.93 1004.88
1011.38 1011.26 1011.20 1011.17 1011.16 1011.17 1011.17 1011.16 1011.15 1011.13 1011.11 1011.08 1011.06 1011.04 1011.03 1011.02 1011.00 1010.96 1010.90 1010.82 1010.70 1010.55 1010.37 1010.15 1009.91 1009.65 1009.38 1009.11 1008.84 1008.56 1008.30 1008.03 1007.76 1007.46 1007.15 1006.81 1006.44 1006.07 1005.70 1005.35 1005.06 1004.84 1004.73
1010.60 1010.46 1010.37 1010.33 1010.32 1010.34 1010.36 1010.37 1010.39 1010.40 1010.40 1010.41 1010.42 1010.44 1010.47 1010.50 1010.53 1010.55 1010.55 1010.52 1010.46 1010.36 1010.22 1010.03 1009.81 1009.57 1009.31 1009.04 1008.77 1008.51 1008.26 1008.01 1007.76 1007.50 1007.22 1006.92 1006.58 1006.24 1005.88 1005.53 1005.22 1004.97 1004.80
Thickness
5785 5784 5783 5784 5783 5783 5782 5781 5781 5781 5781 5781 5782 5782 5781 5779 5777 5776 5773 5771 5769 5767 5765 5762 5761 5760 5758 5757 5756 5755 5754 5753 5751 5750 5748 5747 5747 5745 5743 5742 5740 5739 5738
5786 5785 5783 5783 5783 5783 5782 5781 5781 5781 5780 5781 5781 5782 5781 5779 5777 5776 5773 5770 5768 5766 5764 5763 5762 5760 5759 5757 5756 5755 5753 5752 5751 5750 5749 5748 5747 5746 5743 5742 5741 5739 5738
5786 5785 5783 5782 5783 5783 5782 5782 5781 5781 5780 5781 5780 5781 5781 5779 5778 5776 5773 5770 5768 5766 5764 5763 5762 5762 5760 5758 5756 5754 5753 5752 5750 5749 5748 5747 5746 5744 5743 5742 5740 5739 5738
5787 5785 5783 5782 5783 5783 5782 5781 5779 5778 5778 5778 5778 5779 5779 5778 5776 5774 5773 5771 5769 5767 5764 5763 5762 5762 5760 5758 5756 5754 5752 5750 5749 5748 5747 5746 5745 5744 5743 5742 5740 5739 5738
5786 5785 5784 5782 5783 5782 5781 5780 5778 5777 5775 5776 5776 5777 5777 5776 5774 5774 5772 5771 5770 5768 5765 5763 5761 5760 5759 5757 5755 5754 5752 5750 5748 5747 5746 5745 5744 5744 5743 5742 5741 5739 5738
5785 5784 5784 5782 5783 5781 5779 5778 5776 5776 5775 5775 5776 5776 5776 5776 5774 5773 5772 5771 5770 5769 5767 5765 5762 5760 5759 5757 5755 5754 5752 5750 5748 5747 5746 5745 5744 5743 5743 5742 5741 5739 5738
5784 5783 5781 5780 5780 5778 5776 5776 5774 5772 5772 5774 5771 5769 5771 5774 5772 5771 5772 5771 5770 5769 5768 5765 5763 5760 5758 5756 5755 5753 5752 5750 5748 5747 5746 5745 5744 5743 5743 5742 5741 5739 5738
5782 5782 5779 5778 5777 5775 5774 5773 5771 5769 5770 5771 5766 5760 5757 5761 5766 5770 5769 5769 5769 5769 5768 5766 5764 5761 5759 5757 5754 5752 5751 5750 5748 5747 5746 5745 5744 5744 5743 5743 5742 5740 5738
5781 5778 5778 5776 5775 5773 5770 5770 5769 5766 5764 5767 5768 5760 5751 5748 5755 5763 5767 5768 5768 5767 5766 5766 5764 5762 5759 5757 5755 5752 5751 5749 5748 5747 5746 5745 5744 5743 5742 5742 5740 5739 5737
5779 5777 5776 5774 5773 5772 5770 5769 5768 5766 5764 5761 5764 5764 5762 5758 5751 5750 5758 5763 5765 5764 5764 5765 5764 5762 5759 5756 5755 5753 5751 5749 5747 5746 5745 5744 5744 5743 5742 5741 5739 5738 5736
5777 5775 5774 5772 5771 5769 5768 5767 5766 5765 5763 5760 5759 5759 5759 5758 5757 5749 5746 5752 5757 5760 5762 5762 5762 5759 5758 5757 5755 5752 5750 5748 5747 5745 5744 5744 5743 5742 5741 5740 5738 5737 5735
5773 5772 5771 5770 5768 5767 5765 5764 5763 5762 5761 5759 5757 5757 5754 5752 5750 5748 5745 5746 5748 5753 5758 5759 5758 5757 5756 5756 5754 5751 5749 5747 5746 5744 5743 5742 5741 5741 5740 5739 5738 5736 5734
5768 5768 5768 5766 5765 5764 5762 5761 5760 5758 5757 5755 5754 5753 5753 5752 5751 5749 5745 5743 5744 5748 5752 5754 5755 5754 5754 5753 5751 5749 5747 5745 5744 5743 5741 5740 5740 5739 5739 5737 5736 5735 5733
5767 5766 5765 5763 5762 5760 5759 5757 5756 5754 5753 5752 5752 5750 5749 5749 5749 5747 5743 5739 5736 5739 5742 5746 5751 5751 5750 5749 5747 5746 5744 5743 5741 5740 5740 5739 5738 5737 5736 5735 5734 5733 5731
5766 5764 5762 5759 5758 5756 5755 5753 5751 5749 5748 5747 5746 5746 5744 5744 5745 5745 5743 5740 5733 5727 5730 5738 5741 5746 5746 5745 5743 5742 5741 5739 5738 5738 5737 5736 5735 5734 5733 5732 5731 5730 5728
5761 5759 5757 5755 5753 5751 5750 5748 5746 5745 5742 5741 5741 5739 5738 5738 5738 5738 5737 5736 5734 5728 5725 5731 5735 5739 5740 5741 5739 5738 5737 5736 5735 5734 5734 5733 5733 5731 5729 5728 5728 5727 5725
5758 5755 5752 5750 5748 5746 5744 5742 5740 5739 5736 5735 5734 5733 5731 5731 5730 5730 5730 5729 5728 5726 5721 5725 5730 5734 5733 5733 5732 5732 5733 5732 5732 5730 5730 5729 5729 5728 5727 5726 5724 5723 5722
5753 5750 5748 5745 5743 5740 5738 5736 5733 5732 5730 5728 5727 5725 5723 5724 5722 5721 5721 5720 5720 5720 5717 5716 5721 5724 5726 5727 5727 5726 5728 5729 5729 5728 5726 5726 5725 5724 5723 5721 5720 5719 5718
5748 5745 5742 5739 5736 5734 5732 5730 5728 5727 5725 5723 5721 5718 5716 5715 5713 5713 5712 5712 5712 5714 5713 5711 5713 5716 5718 5720 5720 5720 5721 5722 5723 5724 5722 5721 5720 5719 5718 5717 5716 5716 5715
5743 5740 5737 5733 5731 5728 5725 5723 5721 5720 5718 5717 5715 5713 5711 5708 5706 5704 5704 5703 5703 5702 5703 5703 5704 5707 5709 5712 5710 5709 5709 5712 5714 5717 5717 5716 5715 5714 5714 5712 5712 5711 5710
5739 5735 5730 5727 5725 5722 5718 5715 5713 5713 5711 5709 5708 5707 5705 5702 5700 5698 5697 5696 5695 5693 5693 5692 5694 5696 5698 5699 5699 5700 5700 5703 5705 5708 5707 5708 5708 5707 5707 5707 5706 5706 5705
5732 5729 5725 5720 5717 5715 5711 5708 5706 5705 5704 5701 5700 5699 5698 5696 5694 5692 5691 5689 5688 5686 5684 5684 5685 5685 5687 5690 5691 5691 5690 5691 5692 5698 5697 5698 5701 5701 5702 5703 5703 5703 5701
5724 5721 5718 5714 5710 5706 5703 5701 5699 5697 5697 5695 5693 5691 5690 5691 5688 5685 5683 5683 5681 5680 5679 5677 5677 5678 5680 5682 5682 5682 5682 5681 5683 5689 5688 5688 5692 5693 5696 5698 5698 5697 5696
5718 5714 5711 5708 5704 5700 5697 5695 5693 5692 5691 5689 5686 5684 5682 5680 5679 5676 5675 5675 5674 5673 5672 5671 5672 5673 5676 5676 5675 5675 5675 5676 5679 5683 5683 5679 5683 5684 5689 5690 5691 5691 5690
5710 5708 5705 5702 5698 5694 5691 5688 5686 5685 5684 5682 5680 5678 5675 5672 5670 5668 5666 5665 5665 5666 5667 5667 5667 5667 5667 5668 5667 5666 5666 5665 5666 5672 5675 5673 5674 5675 5677 5679 5682 5682 5682
5704 5702 5699 5697 5693 5688 5684 5681 5678 5677 5675 5674 5672 5670 5667 5664 5661 5658 5656 5656 5655 5655 5656 5658 5658 5659 5659 5660 5659 5658 5657 5655 5656 5659 5665 5664 5664 5664 5664 5669 5672 5672 5672